sat.trackr.live / text

‹ back to catalog

UNKNOWN

NORAD 81615

UNKNOWN UNKNOWN UNKNOWN

§ Identity

Operator
Country
Launch date
Launch site
Launch vehicle
Mass (kg)
RCS (m²)

External: N2YO · Heavens-Above

§ Orbital elements

Epoch: 2026-09-16T03:17:12.265728Z

Period
107.85 min
Inclination
65.8260°
Eccentricity
0.0772279
Mean motion
13.35180648 rev/d
Perigee alt
547.7 km
Apogee alt
1,706.9 km
Semi-major
7,505.4 km
B*
5.8073e-4
RAAN
135.1191°
Arg perigee
6.8680°
Mean anomaly
354.2242°
Rev number
61,988

§ Raw data

UNKNOWN1 81615U          26259.13694752  .00001625  00000+0  58073-3 0  99912 81615  65.8260 135.1191 0772279   6.8680 354.2242 13.35180648619886

JSON: /api/v1/satellites/81615 · /tle

For live sub-satellite position, see the globe view (requires WebGL).

§ Visibility from observer

Set your observer location to see the next 7 days of passes ≥ 10°. The values pass through the URL so the page stays shareable.

No JS? Fill the form by hand. The geolocation button needs JavaScript.